Regional Weather Roundup
Issued by NWS

Home | Current Version | Previous Version | Text Only | Print | Product List | Glossary Off
Versions: 1 2 3 4 5 6 7 8 9 10 11 12 13 14 15 16 17 18 19 20 21 22 23 24 25 26 27

000
ASUS45 KCYS 270510
RWRWY

WYOMING REGIONAL WEATHER ROUNDUP
NATIONAL WEATHER SERVICE CHEYENNE WY
1100 PM MDT MON JUN 26 2017

NOTE:  "FAIR" INDICATES FEW OR NO CLOUDS BELOW 12,000 FEET
WITH NO SIGNIFICANT WEATHER AND/OR OBSTRUCTIONS TO VISIBILITY.

WYZ001-270600-
YELLOWSTONE NATIONAL PARK

CITY           SKY/WX    TMP DP  RH WIND       PRES   REMARKS
LK YELLOWSTONE   N/A     55  41  59 CALM      30.17S
W YELLOWSTONE  NOT AVBL

$$
WYZ002>013-054>058-071-098>099-270600-
NORTHERN WYOMING

CITY           SKY/WX    TMP DP  RH WIND       PRES   REMARKS
JACKSON        FAIR      70  39  32 S6G22     30.08R
CODY           FAIR      70  37  29 S5        29.92S
GREYBULL       FAIR      79  24  13 E6        29.79F
WORLAND        FAIR      74  33  22 SE12      29.83F
SHERIDAN       FAIR      62  51  67 S6        29.84F
BUFFALO        FAIR      68  39  34 S12       29.95S
GILLETTE       FAIR      71  40  32 S26G32    29.92F
NEWCASTLE      FAIR      68  34  28 SE21G31   30.02F

$$
WYZ014>020-022>026-101>103-270600-
CENTRAL WYOMING

CITY           SKY/WX    TMP DP  RH WIND       PRES   REMARKS
BIG PINEY      FAIR      55  36  48 N10       30.11F
PINEDALE       FAIR      54  41  62 NW3       30.14S
DUBOIS         FAIR      64  32  29 W5        30.11F
LANDER         FAIR      74  30  19 SW10      29.99F
RIVERTON       FAIR      70  35  27 SW10      29.97S
CASPER         FAIR      71  42  35 E9        29.97F
DOUGLAS        FAIR      70  42  36 S20G25    30.05R

$$
WYZ021-027>030-104>119-270600-
SOUTHERN WYOMING

CITY           SKY/WX    TMP DP  RH WIND       PRES   REMARKS
EVANSTON       CLOUDY    72  35  25 CALM      30.14R
KEMMERER         N/A     68  32  26 SE5       30.15S
FORT BRIDGER   FAIR      66  37  33 S13       30.14F
ROCK SPRINGS   FAIR      68  29  23 SW8       30.10F
DIXON          FAIR      64  31  28 NE3       30.15S
RAWLINS        FAIR      70  29  21 SW10      30.12F
SARATOGA       FAIR      68  28  22 W6        30.15F
LARAMIE        FAIR      63  45  51 SE25G35   30.19F
CHEYENNE       FAIR      63  53  70 SE17G25   30.18S
TORRINGTON     FAIR      68  44  42 SE15      30.05S
PINE BLUFFS    FAIR      63  55  77 SE21G30   30.14F

$$




USA.gov is the U.S. government's official web portal to all federal, state and local government web resources and services.